Juneau, AK

4:17 AM AKST on December 04, 2016 (GMT -0900)
Juneau International

Weather History for PAJN - June, 2012

Change the Weather History Date:

Friday, June 29, 2012

  Actual Average Record
Temperature  
Mean Temperature 49 °F 56 °F  
Max Temperature 50 °F 63 °F 83 °F (1985)
Min Temperature 47 °F 48 °F 36 °F (1965)
Degree Days  
Heating Degree Days 16 9  
Month to date heating degree days 377 305  
Since 1 June heating degree days 377 305  
Since 1 July heating degree days 8561 8341  
Cooling Degree Days 0 0  
Month to date cooling degree days 1 0  
Year to date cooling degree days 1 0  
Since 1 June cooling degree days 1 0  
Moisture  
Dew Point 47 °F    
Average Humidity 93    
Maximum Humidity 100    
Minimum Humidity 86    
Precipitation  
Precipitation 1.82 in 0.12 in 1.91 in (1953)
Month to date precipitation 6.06 3.12  
Year to date precipitation 25.82 22.72  
Sea Level Pressure  
Sea Level Pressure 29.87 in    
Wind  
Wind Speed 8 mph (East)    
Max Wind Speed 17 mph    
Max Gust Speed 23 mph    
Visibility 7 miles    
Events Rain    
T = Trace of Precipitation, MM = Missing Value Source: NWS Daily Summary

Daily Weather History Graph

Daily Weather History Graph

Search for Another Location

Airport or City:

Trip Planner

Search our weather history database for the weather conditions in past years. The results will help you decide how hot, cold, wet, or windy it might be!

Date:

Astronomy

Jun. 29, 2012 Rise Set
Actual Time 3:55 AM AKDT 10:07 PM AKDT
Civil Twilight 2:38 AM AKDT 11:24 PM AKDT
Nautical Twilight Sun does not rise Sun does not rise
Astronomical Twilight Sun does not rise Sun does not rise
Moon 5:36 PM AKDT (6/29) 12:50 AM AKDT (6/29)
Length of Visible Light 20h 45m
Length of Day
18h 11m
Waxing Gibbous, 79% of the Moon is Illuminated
Jun 29
Waxing Gibbous
Jul 3
Full
Jul 10
Last Quarter
Jul 18
New
Jul 26
First Quarter

Hourly Weather History & Observations

Time (AKDT) Temp. Windchill Dew Point Humidity Pressure Visibility Wind Dir Wind Speed Gust Speed Precip Events Conditions
12:53 AM 48.2 °F - 48.2 °F 100% 29.77 in 10.0 mi ENE 4.6 mph - N/A Rain Light Rain
1:53 AM 48.9 °F - 48.0 °F 97% 29.77 in 10.0 mi East 4.6 mph - 0.00 in   Overcast
2:09 AM 48.2 °F - 48.2 °F 100% 29.77 in 10.0 mi SE 4.6 mph - N/A   Overcast
2:53 AM 48.9 °F - 48.0 °F 97% 29.78 in 10.0 mi East 5.8 mph - 0.00 in   Overcast
3:53 AM 48.2 °F - 48.2 °F 100% 29.78 in 6.0 mi East 5.8 mph - N/A Rain Rain
4:27 AM 48.2 °F - 48.2 °F 100% 29.78 in 4.0 mi East 8.1 mph - 0.05 in Rain Light Rain
4:53 AM 48.0 °F - 48.0 °F 100% 29.79 in 4.0 mi East 5.8 mph - 0.08 in Rain Light Rain
5:53 AM 48.0 °F - 48.0 °F 100% 29.81 in 3.0 mi East 8.1 mph - 0.06 in Rain Rain
6:53 AM 48.9 °F - 48.0 °F 97% 29.82 in 4.0 mi ESE 11.5 mph - 0.39 in Rain Rain
7:53 AM 48.9 °F - 46.9 °F 93% 29.83 in 3.0 mi ESE 11.5 mph - 0.09 in Rain Rain
8:27 AM 48.2 °F - 46.4 °F 93% 29.84 in 2.5 mi SE 12.7 mph - 0.08 in Rain Rain
8:44 AM 48.2 °F - 46.4 °F 93% 29.84 in 3.0 mi SE 10.4 mph - 0.11 in Rain Rain
8:53 AM 48.9 °F - 46.9 °F 93% 29.85 in 3.0 mi SE 6.9 mph - 0.12 in Rain Heavy Rain
9:41 AM 48.2 °F - 46.4 °F 93% 29.86 in 4.0 mi ESE 6.9 mph 17.3 mph 0.30 in Rain Heavy Rain
9:53 AM 48.9 °F - 46.9 °F 93% 29.86 in 6.0 mi SE 8.1 mph - 0.35 in Rain Rain
10:53 AM 50.0 °F - 48.0 °F 93% 29.88 in 9.0 mi East 6.9 mph - 0.11 in Rain Light Rain
11:53 AM 50.0 °F - 46.9 °F 89% 29.89 in 10.0 mi East 9.2 mph - 0.03 in Rain Light Rain
12:53 PM 50.0 °F - 46.9 °F 89% 29.91 in 10.0 mi East 8.1 mph - 0.10 in Rain Rain
1:33 PM 50.0 °F - 46.4 °F 87% 29.91 in 10.0 mi ESE 6.9 mph - 0.02 in Rain Light Rain
1:53 PM 50.0 °F - 46.9 °F 89% 29.92 in 8.0 mi East 4.6 mph - 0.03 in Rain Heavy Rain
2:53 PM 50.0 °F - 46.9 °F 89% 29.93 in 10.0 mi East 11.5 mph - 0.03 in Rain Light Rain
3:53 PM 50.0 °F - 46.9 °F 89% 29.93 in 10.0 mi East 10.4 mph - 0.01 in Rain Light Rain
4:53 PM 50.0 °F - 46.0 °F 86% 29.93 in 10.0 mi ESE 9.2 mph - 0.01 in Rain Light Rain
5:53 PM 48.9 °F - 46.9 °F 93% 29.94 in 10.0 mi ENE 6.9 mph - 0.05 in Rain Light Rain
6:53 PM 48.9 °F - 46.9 °F 93% 29.93 in 10.0 mi East 9.2 mph - 0.07 in Rain Light Rain
7:42 PM 48.2 °F - 46.4 °F 93% 29.93 in 10.0 mi East 6.9 mph - 0.01 in   Overcast
7:53 PM 48.0 °F - 46.9 °F 96% 29.93 in 10.0 mi East 9.2 mph - 0.01 in Rain Light Rain
8:53 PM 48.0 °F - 46.0 °F 93% 29.93 in 7.0 mi ESE 10.4 mph - 0.06 in Rain Light Rain
9:53 PM 46.9 °F - 46.9 °F 100% 29.94 in 5.0 mi East 6.9 mph - 0.05 in Rain Light Rain
10:33 PM 46.4 °F 42.9 °F 46.4 °F 100% 29.93 in 5.0 mi East 6.9 mph - 0.07 in Rain Light Rain
10:53 PM 46.9 °F - 46.0 °F 97% 29.94 in 5.0 mi ENE 8.1 mph - 0.11 in Rain Light Rain
11:53 PM 46.9 °F - 46.0 °F 97% 29.94 in 7.0 mi East 10.4 mph - 0.03 in Rain Light Rain